Weather History for Jackson, MN

Change the Weather History Date:

Tuesday, April 1, 2014

  Actual Average Record
Temperature  
Mean Temperature 28 °F -  
Max Temperature 37 °F 46 °F 69 °F (1997)
Min Temperature 19 °F 29 °F 17 °F (2002)
Degree Days  
Heating Degree Days 37    
Moisture  
Dew Point 20 °F    
Average Humidity 73    
Maximum Humidity 86    
Minimum Humidity 60    
Precipitation  
Precipitation 0.00 in - - ()
Sea Level Pressure  
Sea Level Pressure 29.93 in    
Wind  
Wind Speed 24 mph (NW)    
Max Wind Speed 38 mph    
Max Gust Speed 51 mph    
Visibility 9 miles    
Events Snow    
Averages and records for this station are not official NWS values.
T = Trace of Precipitation, MM = Missing Value Source: NWS Daily Summary

Daily Weather History Graph

Daily Weather History Graph

Search for Another Location

Airport:

Trip Planner

Search our weather history database for the weather conditions in past years. The results will help you decide how hot, cold, wet, or windy it might be!

Date:

Astronomy

Apr. 01, 2014 Rise Set
Actual Time 7:01 AM CDT 7:46 PM CDT
Civil Twilight 6:32 AM CDT 8:15 PM CDT
Nautical Twilight 5:58 AM CDT 8:50 PM CDT
Astronomical Twilight 5:22 AM CDT 9:26 PM CDT
Moon 8:01 AM CDT (4/1) 10:14 PM CDT (4/1)
Length of Visible Light 13h 43m
Length of Day
12h 45m
Waxing Crescent, 5% of the Moon is Illuminated
Apr 1
Waxing Crescent
Apr 7
First Quarter
Apr 15
Full
Apr 22
Last Quarter
Apr 29
New

Hourly Weather History & Observations

Time (CDT) Temp. Windchill Dew Point Humidity Pressure Visibility Wind Dir Wind Speed Gust Speed Precip Events Conditions
12:12 AM 23.0 °F 4.9 °F 17.6 °F 80% 29.59 in 7.0 mi WNW 32.2 mph 41.4 mph N/A   Overcast
12:32 AM 23.0 °F 5.1 °F 17.6 °F 80% 29.61 in 5.0 mi WNW 31.1 mph 43.7 mph N/A   Haze
12:53 AM 23.0 °F 4.1 °F 17.6 °F 80% 29.63 in 7.0 mi West 35.7 mph 42.6 mph N/A   Overcast
1:12 AM 23.0 °F 4.6 °F 17.6 °F 80% 29.65 in 5.0 mi WNW 33.4 mph 41.4 mph N/A Snow Light Snow
1:33 AM 21.2 °F 1.4 °F 14.0 °F 74% 29.65 in 7.0 mi WNW 36.8 mph 47.2 mph N/A Snow Light Snow
1:52 AM 21.2 °F 1.7 °F 14.0 °F 74% 29.67 in 7.0 mi WNW 35.7 mph 44.9 mph N/A Snow Light Snow
2:12 AM 21.2 °F 4.2 °F 14.0 °F 74% 29.68 in 5.0 mi WNW 25.3 mph 47.2 mph N/A Snow Light Snow
2:33 AM 21.2 °F 2.7 °F 14.0 °F 74% 29.69 in 7.0 mi WNW 31.1 mph 49.5 mph N/A Snow Light Snow
2:52 AM 21.2 °F 1.2 °F 14.0 °F 74% 29.69 in 4.0 mi WNW 38.0 mph 44.9 mph N/A Snow Light Snow
3:12 AM 21.2 °F 1.4 °F 14.0 °F 74% 29.70 in 5.0 mi WNW 36.8 mph 49.5 mph N/A Snow Light Snow
3:33 AM 21.2 °F 3.5 °F 14.0 °F 74% 29.72 in 5.0 mi NW 27.6 mph 50.6 mph N/A Snow Light Snow
3:52 AM 21.2 °F 1.9 °F 12.2 °F 68% 29.72 in 10.0 mi NW 34.5 mph 44.9 mph N/A   Mostly Cloudy
4:12 AM 19.4 °F 0.8 °F 12.2 °F 74% 29.74 in 7.0 mi WNW 28.8 mph 47.2 mph N/A Snow Light Snow
4:33 AM 19.4 °F 1.8 °F 12.2 °F 74% 29.77 in 7.0 mi WNW 25.3 mph 49.5 mph N/A Snow Light Snow
4:52 AM 19.4 °F 1.4 °F 14.0 °F 80% 29.79 in 5.0 mi WNW 26.5 mph 41.4 mph N/A Snow Light Snow
5:12 AM 19.4 °F 1.4 °F 14.0 °F 80% 29.81 in 5.0 mi WNW 26.5 mph 36.8 mph N/A Snow Light Snow
5:33 AM 19.4 °F 0.5 °F 12.2 °F 74% 29.82 in 7.0 mi WNW 29.9 mph 39.1 mph N/A Snow Light Snow
5:52 AM 19.4 °F 2.5 °F 12.2 °F 74% 29.83 in 7.0 mi NW 23.0 mph 35.7 mph N/A Snow Light Snow
6:12 AM 19.4 °F 3.2 °F 14.0 °F 80% 29.84 in 7.0 mi WNW 20.7 mph 29.9 mph N/A Snow Light Snow
6:33 AM 19.4 °F 1.1 °F 12.2 °F 74% 29.85 in 10.0 mi WNW 27.6 mph 33.4 mph N/A   Overcast
6:52 AM 19.4 °F 1.8 °F 12.2 °F 74% 29.86 in 10.0 mi WNW 25.3 mph 32.2 mph N/A   Overcast
7:12 AM 19.4 °F 3.6 °F 12.2 °F 74% 29.87 in 10.0 mi WNW 19.6 mph 39.1 mph N/A   Overcast
7:33 AM 21.2 °F 5.6 °F 14.0 °F 74% 29.88 in 10.0 mi WNW 20.7 mph 32.2 mph N/A   Overcast
7:52 AM 19.4 °F 1.8 °F 12.2 °F 74% 29.89 in 10.0 mi WNW 25.3 mph 35.7 mph N/A   Mostly Cloudy
8:13 AM 21.2 °F 4.5 °F 14.0 °F 74% 29.90 in 10.0 mi WNW 24.2 mph 33.4 mph N/A   Clear
8:32 AM 21.2 °F 5.6 °F 14.0 °F 74% 29.92 in 10.0 mi NW 20.7 mph 29.9 mph N/A   Clear
8:52 AM 23.0 °F 7.2 °F 14.0 °F 68% 29.92 in 10.0 mi WNW 23.0 mph 28.8 mph N/A   Clear
9:13 AM 23.0 °F 8.7 °F 14.0 °F 68% 29.93 in 10.0 mi WNW 18.4 mph 32.2 mph N/A   Clear
9:32 AM 24.8 °F 9.6 °F 15.8 °F 69% 29.95 in 10.0 mi WNW 23.0 mph 28.8 mph N/A   Clear
9:52 AM 24.8 °F 9.3 °F 15.8 °F 69% 29.96 in 10.0 mi WNW 24.2 mph 32.2 mph N/A   Clear
10:13 AM 26.6 °F 12.7 °F 15.8 °F 64% 29.98 in 10.0 mi WNW 20.7 mph 29.9 mph N/A   Clear
10:32 AM 26.6 °F 13.4 °F 17.6 °F 69% 29.97 in 10.0 mi WNW 18.4 mph 26.5 mph N/A   Clear
10:52 AM 28.4 °F 15.4 °F 17.6 °F 64% 29.98 in 10.0 mi WNW 19.6 mph 26.5 mph N/A   Clear
11:13 AM 28.4 °F 15.8 °F 17.6 °F 64% 29.98 in 10.0 mi WNW 18.4 mph 26.5 mph N/A   Clear
11:32 AM 30.2 °F 17.4 °F 19.4 °F 64% 29.98 in 10.0 mi NW 20.7 mph 27.6 mph N/A   Clear
11:52 AM 30.2 °F 17.4 °F 19.4 °F 64% 29.99 in 10.0 mi West 20.7 mph 25.3 mph N/A   Clear
12:12 PM 32.0 °F 19.8 °F 21.2 °F 64% 30.00 in 10.0 mi WNW 20.7 mph 24.2 mph N/A   Clear
12:32 PM 32.0 °F 20.8 °F 21.2 °F 64% 30.00 in 10.0 mi WNW 17.3 mph 24.2 mph N/A   Clear
12:52 PM 32.0 °F 21.2 °F 21.2 °F 64% 30.00 in 10.0 mi WNW 16.1 mph 24.2 mph N/A   Clear
1:12 PM 33.8 °F 22.8 °F 23.0 °F 65% 30.00 in 10.0 mi WNW 18.4 mph 25.3 mph N/A   Clear
1:33 PM 33.8 °F 23.2 °F 23.0 °F 65% 30.00 in 10.0 mi NW 17.3 mph 23.0 mph N/A   Clear
1:52 PM 35.6 °F 25.5 °F 23.0 °F 60% 30.00 in 10.0 mi WNW 17.3 mph 23.0 mph N/A   Clear
2:12 PM 35.6 °F 26.2 °F 24.8 °F 65% 30.00 in 10.0 mi NW 15.0 mph 21.9 mph N/A   Clear
2:33 PM 35.6 °F 25.9 °F 26.6 °F 70% 30.00 in 10.0 mi WNW 16.1 mph 21.9 mph N/A   Clear
2:52 PM 37.4 °F 28.2 °F 26.6 °F 65% 30.00 in 10.0 mi NW 16.1 mph 23.0 mph N/A   Clear
3:12 PM 37.4 °F 28.9 °F 26.6 °F 65% 30.00 in 10.0 mi WNW 13.8 mph - N/A   Clear
3:33 PM 35.6 °F 26.6 °F 26.6 °F 70% 30.00 in 10.0 mi NW 13.8 mph - N/A   Clear
3:52 PM 37.4 °F 28.9 °F 26.6 °F 65% 30.01 in 10.0 mi NW 13.8 mph 19.6 mph N/A   Clear
4:12 PM 37.4 °F 28.9 °F 26.6 °F 65% 30.00 in 10.0 mi NW 13.8 mph 19.6 mph N/A   Clear
4:33 PM 37.4 °F 30.3 °F 26.6 °F 65% 30.01 in 10.0 mi WNW 10.4 mph - N/A   Clear
4:52 PM 37.4 °F 29.8 °F 26.6 °F 65% 30.01 in 10.0 mi NW 11.5 mph - N/A   Clear
5:12 PM 37.4 °F 29.3 °F 26.6 °F 65% 30.02 in 10.0 mi WNW 12.7 mph - N/A   Clear
5:33 PM 35.6 °F 27.5 °F 26.6 °F 70% 30.03 in 10.0 mi WNW 11.5 mph - N/A   Clear
5:52 PM 35.6 °F 27.1 °F 26.6 °F 70% 30.03 in 10.0 mi NW 12.7 mph 16.1 mph N/A   Clear
6:12 PM 35.6 °F 28.0 °F 26.6 °F 70% 30.04 in 10.0 mi NW 10.4 mph - N/A   Clear
6:33 PM 35.6 °F 28.6 °F 26.6 °F 70% 30.06 in 10.0 mi WNW 9.2 mph - N/A   Clear
6:52 PM 35.6 °F 28.6 °F 26.6 °F 70% 30.06 in 10.0 mi NW 9.2 mph - N/A   Scattered Clouds
7:12 PM 33.8 °F 26.4 °F 26.6 °F 75% 30.07 in 10.0 mi NW 9.2 mph - N/A   Mostly Cloudy
7:33 PM 33.8 °F 29.6 °F 26.6 °F 75% 30.07 in 10.0 mi North 4.6 mph - N/A   Overcast
7:52 PM 32.0 °F 27.5 °F 26.6 °F 80% 30.07 in 10.0 mi NNW 4.6 mph - N/A   Mostly Cloudy
8:12 PM 32.0 °F 26.4 °F 26.6 °F 80% 30.07 in 10.0 mi North 5.8 mph - N/A   Mostly Cloudy
8:33 PM 32.0 °F 25.6 °F 26.6 °F 80% 30.07 in 10.0 mi North 6.9 mph - N/A   Overcast
8:52 PM 32.0 °F 24.2 °F 26.6 °F 80% 30.08 in 10.0 mi North 9.2 mph - N/A   Overcast
9:12 PM 32.0 °F 26.4 °F 26.6 °F 80% 30.08 in 10.0 mi North 5.8 mph - N/A   Overcast
9:33 PM 32.0 °F 24.2 °F 26.6 °F 80% 30.08 in 10.0 mi North 9.2 mph - N/A   Overcast
9:52 PM 32.0 °F 24.2 °F 26.6 °F 80% 30.08 in 10.0 mi North 9.2 mph - N/A   Overcast
10:12 PM 30.2 °F 21.3 °F 26.6 °F 86% 30.09 in 10.0 mi North 10.4 mph - N/A   Overcast
10:33 PM 30.2 °F 22.6 °F 26.6 °F 86% 30.09 in 10.0 mi North 8.1 mph - N/A   Mostly Cloudy
10:52 PM 30.2 °F 23.4 °F 24.8 °F 80% 30.09 in 10.0 mi North 6.9 mph - N/A   Scattered Clouds
11:12 PM 28.4 °F 21.2 °F 24.8 °F 86% 30.09 in 10.0 mi North 6.9 mph - N/A   Clear
11:33 PM 28.4 °F 19.7 °F 24.8 °F 86% 30.09 in 10.0 mi North 9.2 mph - N/A   Mostly Cloudy
11:52 PM 28.4 °F 19.7 °F 24.8 °F 86% 30.09 in 10.0 mi North 9.2 mph - N/A   Scattered Clouds